Chubbuck, ID

2:52 PM MST on February 06, 2016 (GMT -0700)
Pocatello Regional

Weather History for KPIH - January, 2012

Change the Weather History Date:

Wednesday, January 25, 2012

  Actual Average Record
Temperature  
Mean Temperature 40 °F 25 °F  
Max Temperature 47 °F 33 °F 54 °F (1953)
Min Temperature 33 °F 16 °F -31 °F (1949)
Degree Days  
Heating Degree Days 25 40  
Month to date heating degree days 902 1020  
Since 1 July heating degree days 3806 4005  
Cooling Degree Days 0 0  
Month to date cooling degree days 0 0  
Year to date cooling degree days 0 0  
Moisture  
Dew Point 29 °F    
Average Humidity 67    
Maximum Humidity 76    
Minimum Humidity 58    
Precipitation  
Precipitation T in 0.03 in 0.44 in (1997)
Month to date precipitation 1.43 0.82  
Year to date precipitation 1.43 0.82  
Snow  
Snow 0.00 in - - ()
Month to date snowfall 1.4  
Since 1 July snowfall 7.8  
Snow Depth 0.00 in    
Sea Level Pressure  
Sea Level Pressure 30.32 in    
Wind  
Wind Speed 17 mph (SSW)    
Max Wind Speed 29 mph    
Max Gust Speed 39 mph    
Visibility 10 miles    
Events      
T = Trace of Precipitation, MM = Missing Value Source: NWS Daily Summary

Daily Weather History Graph

Daily Weather History Graph

Search for Another Location

Airport or City:

Trip Planner

Search our weather history database for the weather conditions in past years. The results will help you decide how hot, cold, wet, or windy it might be!

Date:

Astronomy

Jan. 25, 2012 Rise Set
Actual Time 7:52 AM MST 5:33 PM MST
Civil Twilight 7:21 AM MST 6:04 PM MST
Nautical Twilight 6:47 AM MST 6:38 PM MST
Astronomical Twilight 6:13 AM MST 7:12 PM MST
Moon 8:48 AM MST (1/25) 8:36 PM MST (1/25)
Length of Visible Light 10h 42m
Length of Day
9h 41m
Waxing Crescent, 7% of the Moon is Illuminated
Jan 25
Waxing Crescent
Jan 30
First Quarter
Feb 7
Full
Feb 14
Last Quarter
Feb 21
New

Hourly Weather History & Observations

Time (MST) Temp. Windchill Dew Point Humidity Pressure Visibility Wind Dir Wind Speed Gust Speed Precip Events Conditions
12:53 AM 33.1 °F 24.9 °F 21.9 °F 64% 30.39 in 10.0 mi South 10.4 mph 19.6 mph N/A   Overcast
1:53 AM 33.1 °F 23.0 °F 21.9 °F 64% 30.41 in 10.0 mi South 15.0 mph 19.6 mph N/A   Overcast
2:53 AM 34.0 °F 25.0 °F 23.0 °F 64% 30.42 in 10.0 mi South 12.7 mph - N/A   Overcast
3:53 AM 35.1 °F 25.5 °F 25.0 °F 67% 30.39 in 10.0 mi South 15.0 mph 20.7 mph N/A   Overcast
4:17 AM 33.8 °F 24.8 °F 24.8 °F 70% 30.34 in 10.0 mi SSW 12.7 mph - N/A   Overcast
4:53 AM 34.0 °F 25.5 °F 26.1 °F 73% 30.39 in 10.0 mi South 11.5 mph - N/A   Overcast
5:53 AM 37.9 °F 30.9 °F 30.0 °F 73% 30.38 in 10.0 mi South 10.4 mph - N/A   Overcast
6:53 AM 39.0 °F 30.6 °F 30.0 °F 70% 30.35 in 10.0 mi South 15.0 mph - N/A   Overcast
7:53 AM 39.9 °F 30.8 °F 30.9 °F 70% 30.34 in 10.0 mi South 18.4 mph 25.3 mph 0.00 in   Overcast
8:53 AM 39.9 °F 30.0 °F 30.0 °F 68% 30.30 in 10.0 mi South 21.9 mph 27.6 mph N/A   Mostly Cloudy
9:53 AM 41.0 °F 31.9 °F 30.0 °F 65% 30.29 in 10.0 mi SSW 19.6 mph 33.4 mph N/A   Mostly Cloudy
10:53 AM 44.1 °F 35.4 °F 30.9 °F 60% 30.27 in 10.0 mi SSW 21.9 mph 31.1 mph N/A   Mostly Cloudy
11:53 AM 44.6 °F 36.1 °F 30.2 °F 57% 30.26 in 10.0 mi SSW 21.9 mph 34.5 mph N/A   Mostly Cloudy
12:53 PM 45.0 °F 36.9 °F 32.0 °F 60% 30.26 in 10.0 mi SSW 20.7 mph 27.6 mph N/A   Mostly Cloudy
1:53 PM 43.0 °F 34.2 °F 30.9 °F 62% 30.26 in 10.0 mi SSW 20.7 mph 26.5 mph N/A   Mostly Cloudy
2:53 PM 45.0 °F 36.9 °F 34.0 °F 65% 30.25 in 10.0 mi SW 20.7 mph 33.4 mph N/A   Mostly Cloudy
3:53 PM 44.1 °F 35.7 °F 35.1 °F 71% 30.26 in 10.0 mi SW 20.7 mph 26.5 mph N/A   Scattered Clouds
4:53 PM 42.1 °F 33.1 °F 34.0 °F 73% 30.26 in 10.0 mi SW 20.7 mph 28.8 mph N/A   Partly Cloudy
5:53 PM 41.0 °F 31.1 °F 33.1 °F 73% 30.28 in 10.0 mi SW 23.0 mph 29.9 mph N/A   Partly Cloudy
6:53 PM 39.9 °F 30.5 °F 32.0 °F 73% 30.31 in 10.0 mi SW 19.6 mph 28.8 mph N/A   Clear
7:53 PM 39.2 °F 29.8 °F 30.2 °F 70% 30.28 in 10.0 mi WSW 18.4 mph - N/A   Clear
8:53 PM 35.6 °F 29.2 °F 28.4 °F 75% 30.29 in 10.0 mi South 8.1 mph - N/A   Clear
9:53 PM 39.0 °F 31.0 °F 28.9 °F 67% 30.31 in 10.0 mi SW 13.8 mph 23.0 mph N/A   Clear
10:53 PM 37.9 °F 30.9 °F 28.9 °F 70% 30.29 in 10.0 mi SSW 10.4 mph - N/A   Clear
11:53 PM 36.0 °F 31.1 °F 28.0 °F 73% 30.32 in 10.0 mi WSW 5.8 mph - N/A   Clear